Location: 22
(39.7117°N, 89.5929°W)
Time: 13:53:40
(UTC-06:00)

ISS - Visible Passes

Search period start: 04 December 2022 00:00
Search period end: 14 December 2022 00:00
Orbit: 414 x 420 km, 51.6° (Epoch: 04 December)

Date Brightness Start Highest point End Pass type
(mag) Time Alt. Az. Time Alt. Az. Time Alt. Az.
04 Dec -3.6 17:52:21 10° NW 17:55:37 51° NNE 17:56:37 35° E visible
05 Dec -2.9 17:04:20 10° NW 17:07:23 32° NNE 17:10:26 10° E visible
05 Dec -2.0 18:41:09 10° WNW 18:44:06 29° SW 18:44:19 29° SW visible
06 Dec -3.0 17:52:46 10° WNW 17:56:01 53° SW 17:59:16 10° SE visible
07 Dec -3.8 17:04:31 10° NW 17:07:52 84° NE 17:11:11 10° SE visible
08 Dec -0.7 17:53:47 10° W 17:56:07 18° SW 17:58:26 10° S visible
09 Dec -1.6 17:05:01 10° WNW 17:08:01 31° SW 17:11:00 10° SSE visible
11 Dec 0.2 17:07:09 10° WSW 17:07:53 11° SW 17:08:37 10° SW visible
